Simultaneous Nadir Overpasses (SNOs) Predictions

Prediction of SNOs between METOP-A and NOAA-19 Satellite Orbit:

Table of predicted SNOs for the next 14.0 days since TLE Epoch: 10/4/2019
Index Date (METOP-A) Time (METOP-A) Lat,Lon (METOP-A) SZA (METOP-A ) Date (NOAA-19) Time (NOAA-19) Lat,Lon (NOAA-19) SZA (NOAA-19 ) Distance(km) Time Diff (sec)
1 10/14/2019 23:27:45 -80.01, 20.85 91.33 10/14/2019 23:26:35 -80.03, 20.91 91.33 2.07 70
2 10/15/2019 00:18:25 80.02,-171.73 88.70 10/15/2019 00:17:32 80.03,-171.81 88.69 1.72 53
3 10/15/2019 01:09:06 -80.03, -4.31 91.28 10/15/2019 01:08:35 -80.01, -4.36 91.31 2.55 31
4 10/15/2019 01:59:47 80.01, 162.82 88.71 10/15/2019 01:59:32 80.01, 162.92 88.71 1.86 15
5 10/15/2019 02:50:28 -80.02, -29.76 91.27 10/15/2019 02:50:36 -80.02, -29.94 91.28 3.48 8
6 10/15/2019 03:41:09 80.00, 137.37 88.72 10/15/2019 03:41:33 80.02, 137.34 88.74 1.98 24
7 10/15/2019 04:31:50 -80.01, -55.21 91.26 10/15/2019 04:32:36 -80.00, -55.20 91.26 1.16 46
8 10/15/2019 05:22:31 79.99, 111.92 88.73 10/15/2019 05:23:33 80.00, 112.07 88.76 3.01 62




NCC Satellite Simultaneous Nadir Overpasses (SNOs) Prediction Service
